EW4944 Weather Reports


Display with metric or nautical units.
time (UTC)temp
F
wind
direction
speed
MPH
gust
MPH
rain 1hr
in
rain 24hr
in
rain mn
in
humidity
%
barometer
mb
20260903111056 69 0.0 0.0 0.00 0.34 0.29 95 1015.1
20260903110559 69 0.0 0.0 0.00 0.34 0.29 95 1015.0
20260903110106 69 0.0 0.0 0.00 0.34 0.29 95 1014.9
20260903105559 69 0.0 0.0 0.00 0.34 0.29 95 1015.0
20260903105056 69 0.0 0.0 0.00 0.34 0.29 95 1015.1
20260903104608 69 0.0 0.0 0.00 0.34 0.29 95 1015.1
20260903104056 69 0.0 0.0 0.00 0.34 0.29 95 1015.0
20260903103556 69 0.0 0.0 0.00 0.34 0.29 95 1014.8
20260903103106 69 0.0 0.0 0.00 0.34 0.29 95 1014.9
20260903102557 69 0.0 0.0 0.00 0.34 0.29 95 1014.8
20260903102057 69 0.0 0.0 0.00 0.34 0.29 95 1014.6
20260903101605 69 0.0 0.0 0.00 0.34 0.29 95 1014.5
20260903101056 69 0.0 0.0 0.00 0.34 0.29 95 1014.5
20260903100556 69 0.0 0.0 0.00 0.34 0.29 95 1014.4
20260903100106 69 0.0 0.0 0.00 0.34 0.29 94 1014.4
20260903095558 69 0.0 0.0 0.00 0.34 0.29 94 1014.2
20260903095058 68 0.0 0.0 0.00 0.34 0.29 94 1014.3
20260903094611 68 0.0 0.0 0.00 0.34 0.29 94 1014.3
20260903094059 68 0.0 0.0 0.00 0.34 0.29 94 1014.3
20260903093559 69 0.0 0.0 0.00 0.34 0.29 94 1014.2
20260903093104 69 0.0 0.0 0.00 0.34 0.29 94 1014.2
20260903092558 69 0.0 0.0 0.00 0.34 0.29 94 1014.1
20260903092057 69 0.0 0.0 0.00 0.34 0.29 94 1014.1
20260903091606 68 0.0 0.0 0.00 0.34 0.29 94 1014.1
20260903091058 68 0.0 0.0 0.00 0.34 0.29 94 1014.2
20260903090558 68 0.0 0.0 0.00 0.34 0.29 94 1014.1
20260903085558 68 0.0 0.0 0.00 0.34 0.29 94 1014.6
20260903085057 68 0.0 0.0 0.00 0.34 0.29 94 1014.4
20260903084604 68 0.0 0.0 0.00 0.34 0.29 94 1014.5
20260903084058 68 0.0 0.0 0.00 0.34 0.29 94 1014.4
20260903083558 68 0.0 0.0 0.00 0.34 0.29 94 1014.5
20260903083107 68 0.0 0.0 0.00 0.34 0.29 94 1014.5
20260903082554 68 0.0 0.0 0.00 0.34 0.29 94 1014.6
20260903082058 68 0.0 0.0 0.00 0.34 0.29 94 1014.5
20260903081609 68 0.0 0.0 0.00 0.34 0.29 94 1014.8
20260903081100 68 0.0 0.0 0.00 0.34 0.29 93 1015.0
20260903080558 68 0.0 0.0 0.01 0.34 0.29 93 1015.0
20260903080110 68 0.0 0.0 0.01 0.34 0.29 93 1015.0
20260903075558 68 0.0 0.0 0.01 0.34 0.29 93 1015.0
20260903075057 68 0.0 0.0 0.01 0.34 0.29 93 1015.1
20260903074602 68 0.0 0.0 0.01 0.34 0.29 93 1015.2
20260903074057 68 0.0 0.0 0.01 0.34 0.29 93 1015.3
20260903073557 68 0.0 0.0 0.02 0.34 0.29 93 1015.2
20260903073115 68 0.0 0.0 0.02 0.34 0.29 93 1015.3
20260903072557 68 0.0 0.0 0.02 0.34 0.29 93 1015.3
20260903072058 68 0.0 0.0 0.03 0.34 0.29 93 1015.4
20260903071606 68 0.0 0.0 0.03 0.34 0.29 93 1015.6
20260903071059 68 0.0 0.0 0.04 0.34 0.29 93 1015.5
20260903070600 68 0.0 0.0 0.04 0.33 0.28 93 1015.5
20260903070109 68 0.0 0.0 0.05 0.33 0.28 93 1015.7
20260903065557 68 0.0 0.0 0.08 0.33 0.28 93 1015.5
20260903065056 68 0.0 0.0 0.09 0.33 0.28 93 1015.5
20260903064604 68 0.0 0.0 0.13 0.33 0.28 93 1015.3
20260903064057 68 0.0 0.0 0.25 0.33 0.28 93 1015.0
20260903063556 68 0.0 0.0 0.25 0.32 0.27 93 1015.4
20260903063126 68 0.0 0.0 0.25 0.32 0.27 92 1015.5
20260903062557 68 0.0 0.0 0.26 0.32 0.27 93 1015.8
20260903062057 68 0.0 0.0 0.25 0.31 0.26 93 1015.9
20260903061604 68 0.0 0.0 0.25 0.31 0.26 93 1015.9
20260903061100 69 0.0 0.0 0.24 0.30 0.25 93 1015.9
20260903060556 69 0.0 0.0 0.23 0.29 0.24 92 1016.1
20260903060101 69 0.0 0.0 0.22 0.28 0.23 92 1016.6
20260903055556 69 0.0 0.0 0.19 0.26 0.20 92 1017.0
20260903055056 69 0.0 0.0 0.19 0.25 0.19 92 1016.6
20260903054602 69 0.0 0.0 0.14 0.20 0.14 92 1016.7
20260903054056 69 0.0 0.0 0.03 0.09 0.03 92 1016.7
20260903053557 68 0.0 0.0 0.02 0.08 0.02 92 1016.9
20260903053105 68 0.0 0.0 0.02 0.08 0.02 92 1017.0
20260903052556 69 0.0 0.0 0.01 0.07 0.01 91 1017.1
20260903052059 69 0.0 0.0 0.01 0.07 0.01 91 1017.2
20260903051557 69 0.0 0.0 0.01 0.07 0.01 91 1017.1
20260903051055 69 0.0 0.0 0.01 0.07 0.01 91 1017.4
20260903050558 69 0.0 0.0 0.01 0.07 0.01 91 1017.4
20260903050107 69 0.0 0.0 0.01 0.07 0.01 91 1017.4
20260903045557 69 0.0 0.0 0.01 0.07 0.01 91 1017.4
20260903045058 69 0.0 0.0 0.00 0.06 0.00 91 1017.5
20260903044605 69 0.0 0.0 0.00 0.06 0.00 91 1017.6
20260903044056 69 0.0 0.0 0.00 0.06 0.00 91 1017.5
20260903043556 69 0.0 0.0 0.00 0.06 0.00 91 1017.8
20260903043111 69 0.0 0.0 0.00 0.06 0.00 91 1017.7
20260903042556 69 0.0 0.0 0.00 0.06 0.00 91 1017.8
20260903042056 69 0.0 0.0 0.00 0.06 0.00 91 1017.8
20260903041611 69 0.0 0.0 0.00 0.06 0.00 91 1017.8
20260903041056 69 0.0 0.0 0.00 0.06 0.00 91 1018.0
20260903040557 69 0.0 0.0 0.00 0.06 0.00 91 1018.1
20260903040112 69 0.0 0.0 0.00 0.06 0.00 91 1018.1
20260903035556 69 0.0 0.0 0.00 0.07 0.06 91 1018.0
20260903035056 69 0.0 0.0 0.00 0.07 0.06 91 1017.8
20260903034603 69 0.0 0.0 0.00 0.07 0.06 91 1017.6
20260903034057 69 0.0 0.0 0.00 0.07 0.06 91 1017.4
20260903033558 69 0.0 0.0 0.00 0.07 0.06 91 1017.6
20260903033103 69 0.0 0.0 0.00 0.07 0.06 91 1017.7
20260903032554 69 0.0 0.0 0.00 0.07 0.06 90 1017.5
20260903032057 69 0.0 0.0 0.00 0.07 0.06 90 1017.5
20260903031604 69 0.0 0.0 0.00 0.07 0.06 90 1017.6
20260903031059 68 0.0 0.0 0.00 0.07 0.06 90 1018.0
20260903030557 68 0.0 0.0 0.00 0.07 0.06 90 1018.1
20260903030110 68 0.0 0.0 0.00 0.07 0.06 90 1018.3
20260903025554 68 0.0 0.0 0.00 0.07 0.06 90 1018.3
20260903025057 68 0.0 0.0 0.00 0.07 0.06 90 1018.5
20260903024603 68 0.0 0.0 0.00 0.07 0.06 90 1018.6
20260903024101 68 0.0 0.0 0.00 0.07 0.06 90 1018.5
20260903023601 68 0.0 0.0 0.00 0.07 0.06 90 1018.4
20260903023107 68 0.0 0.0 0.00 0.07 0.06 90 1018.2
20260903022556 68 0.0 0.0 0.00 0.07 0.06 90 1018.4
20260903022054 68 0.0 0.0 0.00 0.07 0.06 90 1018.5
20260903021608 68 0.0 0.0 0.00 0.07 0.06 90 1018.5
20260903021054 68 0.0 0.0 0.00 0.07 0.06 90 1018.6
20260903020556 68 0.0 0.0 0.00 0.07 0.06 90 1018.7
20260903015557 68 0.0 0.0 0.00 0.07 0.06 90 1018.6
20260903015058 68 0.0 0.0 0.00 0.07 0.06 90 1018.7
20260903014603 68 0.0 0.0 0.00 0.07 0.06 90 1018.7
20260903014056 68 0.0 0.0 0.00 0.07 0.06 90 1018.8
20260903013557 68 0.0 0.0 0.00 0.07 0.06 90 1018.8
20260903013100 68 0.0 0.0 0.00 0.07 0.06 90 1018.8
20260903012556 68 0.0 0.0 0.00 0.07 0.06 90 1018.9
20260903012057 68 0.0 0.0 0.00 0.07 0.06 90 1019.1
20260903011610 68 0.0 0.0 0.00 0.07 0.06 90 1018.9
20260903011057 68 0.0 0.0 0.00 0.07 0.06 90 1018.9
20260903010557 68 0.0 0.0 0.00 0.07 0.06 90 1018.9
20260903010103 68 0.0 0.0 0.00 0.07 0.06 90 1018.9
20260903005557 68 0.0 0.0 0.00 0.07 0.06 90 1018.9
20260903005056 68 0.0 0.0 0.00 0.07 0.06 90 1019.1
20260903004620 68 0.0 0.0 0.00 0.07 0.06 90 1019.2
20260903004057 68 0.0 0.0 0.00 0.07 0.06 90 1019.1
20260903003556 68 0.0 0.0 0.00 0.07 0.06 90 1019.0
20260903003102 68 0.0 0.0 0.00 0.07 0.06 90 1018.8
20260903002557 68 0.0 0.0 0.00 0.07 0.06 90 1018.8
20260903002057 68 0.0 0.0 0.00 0.07 0.06 90 1018.6
20260903001606 68 0.0 0.0 0.00 0.07 0.06 90 1018.6
20260903001057 68 0.0 0.0 0.00 0.07 0.06 90 1018.4
20260903000556 68 0.0 0.0 0.00 0.07 0.06 89 1018.4
20260903000104 68 0.0 0.0 0.00 0.07 0.06 89 1018.3
20260902235557 68 0.0 0.0 0.00 0.07 0.06 89 1018.4
20260902235058 68 0.0 0.0 0.00 0.07 0.06 89 1018.4
20260902234602 68 0.0 0.0 0.00 0.07 0.06 89 1018.6
20260902234054 68 0.0 0.0 0.00 0.07 0.06 89 1018.5
20260902233556 68 0.0 0.0 0.00 0.07 0.06 89 1018.3
20260902233105 68 0.0 0.0 0.00 0.07 0.06 89 1018.3
20260902232555 68 0.0 0.0 0.00 0.07 0.06 89 1018.6
20260902232057 68 0.0 0.0 0.00 0.07 0.06 88 1018.8
20260902231612 68 0.0 0.0 0.00 0.07 0.06 88 1019.1
20260902231057 68 0.0 0.0 0.00 0.07 0.06 88 1019.2
20260902230556 68 0.0 0.0 0.00 0.07 0.06 88 1019.3
20260902230107 68 0.0 0.0 0.00 0.07 0.06 88 1019.4
20260902225554 68 0.0 0.0 0.00 0.07 0.06 88 1019.6
20260902225054 68 0.0 0.0 0.00 0.07 0.06 88 1019.6
20260902224603 68 2.0 7.0 0.00 0.07 0.06 88 1019.7
20260902224056 68 159 2.0 7.0 0.00 0.07 0.06 88 1019.7
20260902223557 68 107 3.0 7.0 0.00 0.07 0.06 88 1019.7
20260902223117 68 0 2.0 11.0 0.00 0.07 0.06 88 1019.8
20260902222556 68 138 2.0 11.0 0.00 0.07 0.06 88 1019.7
20260902222058 68 86 4.0 9.0 0.00 0.07 0.06 88 1019.8
20260902221606 68 72 4.0 8.0 0.00 0.07 0.06 88 1019.8
20260902221059 68 88 3.0 9.0 0.00 0.07 0.06 89 1019.9
20260902220553 68 0 3.0 9.0 0.00 0.07 0.06 89 1019.8
20260902220106 68 30 2.0 7.0 0.00 0.07 0.06 89 1019.8
20260902215556 68 159 2.0 8.0 0.00 0.07 0.06 89 1019.7
20260902215059 68 107 3.0 8.0 0.00 0.07 0.06 89 1019.8
20260902214601 68 113 1.0 7.0 0.00 0.07 0.06 89 1019.7
20260902214057 68 92 2.0 8.0 0.00 0.07 0.06 89 1019.7
20260902213556 68 0 3.0 8.0 0.00 0.07 0.06 89 1019.6
20260902213110 69 65 3.0 8.0 0.00 0.07 0.06 89 1019.5
20260902212558 69 90 2.0 9.0 0.00 0.07 0.06 89 1019.4
20260902212056 69 88 1.0 9.0 0.00 0.07 0.06 89 1019.3
20260902211606 69 115 3.0 9.0 0.00 0.07 0.06 89 1019.3
20260902211054 69 0 2.0 8.0 0.00 0.07 0.06 89 1019.5
20260902210556 69 111 2.0 8.0 0.00 0.07 0.06 89 1019.6
20260902210103 69 84 2.0 8.0 0.00 0.07 0.06 89 1019.5
20260902205554 69 66 2.0 7.0 0.01 0.07 0.06 89 1019.5
20260902205056 69 80 2.0 6.0 0.01 0.07 0.06 89 1019.4
20260902204640 69 0 0.0 4.0 0.03 0.07 0.06 88 1019.5
20260902204056 69 0 1.0 4.0 0.05 0.07 0.06 88 1019.5
20260902203557 69 96 1.0 7.0 0.05 0.07 0.06 88 1019.5
20260902203107 69 105 1.0 7.0 0.05 0.07 0.06 87 1019.3
20260902202600 69 132 2.0 8.0 0.05 0.07 0.06 87 1019.3
20260902202057 69 128 1.0 8.0 0.05 0.07 0.06 87 1019.5
20260902201606 69 95 2.0 8.0 0.05 0.07 0.06 87 1019.5
20260902201102 69 0 1.0 8.0 0.05 0.07 0.06 86 1019.3
20260902200557 69 140 2.0 8.0 0.05 0.07 0.06 86 1019.3
20260902200104 70 127 2.0 9.0 0.05 0.07 0.06 85 1019.4
20260902195558 70 129 1.0 9.0 0.04 0.06 0.05 85 1019.5
20260902195057 70 99 1.0 8.0 0.04 0.06 0.05 84 1019.5
20260902194603 70 135 2.0 8.0 0.02 0.04 0.03 83 1019.6
20260902194057 70 101 2.0 8.0 0.00 0.02 0.01 82 1019.9
20260902193557 70 74 2.0 5.0 0.00 0.02 0.01 81 1019.9
20260902193058 70 45 1.0 4.0 0.00 0.02 0.01 80 1020.4
20260902192557 70 0 0.0 7.0 0.00 0.02 0.01 80 1020.7
20260902192056 70 40 2.0 8.0 0.00 0.02 0.01 80 1020.4
20260902191609 70 97 1.0 10.0 0.00 0.02 0.01 80 1020.4
20260902191056 70 57 4.0 13.0 0.00 0.02 0.01 79 1020.1
20260902190556 71 80 5.0 13.0 0.00 0.02 0.01 79 1020.0
20260902190106 71 146 4.0 13.0 0.00 0.02 0.01 79 1019.9
20260902185558 71 117 4.0 11.0 0.00 0.02 0.01 79 1020.0
20260902185056 71 77 2.0 10.0 0.00 0.02 0.01 79 1020.0
20260902184602 71 68 4.0 10.0 0.00 0.02 0.01 79 1020.0
20260902184057 71 103 3.0 10.0 0.00 0.02 0.01 78 1019.9
20260902183557 71 121 3.0 11.0 0.00 0.02 0.01 78 1019.8
20260902183113 71 150 3.0 11.0 0.00 0.02 0.01 78 1019.8
20260902182556 71 77 5.0 11.0 0.00 0.02 0.01 78 1019.8
20260902182056 71 113 6.0 12.0 0.00 0.02 0.01 78 1019.7
20260902181614 71 100 4.0 12.0 0.00 0.02 0.01 78 1020.0
20260902181057 71 76 6.0 12.0 0.00 0.02 0.01 79 1020.2
20260902180553 71 60 3.0 14.0 0.00 0.02 0.01 79 1020.1
20260902180109 70 101 5.0 14.0 0.00 0.02 0.01 79 1020.2
20260902175557 70 78 5.0 14.0 0.00 0.02 0.01 79 1020.3
20260902175056 70 103 3.0 11.0 0.00 0.02 0.01 80 1020.3
20260902174603 70 104 4.0 12.0 0.00 0.02 0.01 80 1020.5
20260902174056 70 67 3.0 12.0 0.00 0.02 0.01 80 1020.4
20260902173554 70 53 4.0 12.0 0.00 0.02 0.01 80 1020.4
20260902173118 70 65 3.0 9.0 0.00 0.02 0.01 80 1020.4
20260902172556 70 42 2.0 11.0 0.00 0.02 0.01 80 1020.4
20260902172057 70 75 4.0 11.0 0.00 0.02 0.01 80 1020.4
20260902171609 70 147 4.0 17.0 0.00 0.02 0.01 79 1020.5
20260902171056 70 73 6.0 17.0 0.00 0.02 0.01 79 1020.4
20260902170556 70 113 4.0 14.0 0.00 0.02 0.01 80 1020.2
20260902170106 70 96 5.0 14.0 0.00 0.02 0.01 80 1020.1
20260902165553 70 81 5.0 14.0 0.00 0.02 0.01 79 1020.0
20260902165056 70 112 6.0 17.0 0.00 0.02 0.01 79 1020.0
20260902164607 70 72 7.0 17.0 0.00 0.02 0.01 79 1020.1
20260902164057 70 125 6.0 13.0 0.00 0.02 0.01 79 1020.1
20260902163556 70 81 3.0 13.0 0.00 0.02 0.01 80 1020.3
20260902163103 70 108 5.0 13.0 0.00 0.02 0.01 79 1020.4
20260902162555 70 132 5.0 15.0 0.00 0.02 0.01 80 1020.5
20260902162054 70 122 6.0 15.0 0.00 0.02 0.01 80 1020.5
20260902161612 70 80 1.0 14.0 0.00 0.02 0.01 80 1020.7
20260902161058 70 139 4.0 14.0 0.00 0.02 0.01 79 1020.6
20260902160556 70 74 4.0 14.0 0.00 0.02 0.01 79 1020.5
20260902160104 70 126 5.0 13.0 0.00 0.02 0.01 79 1020.6
20260902155556 70 153 4.0 13.0 0.00 0.02 0.01 79 1020.6
20260902155057 70 121 5.0 11.0 0.00 0.02 0.01 79 1020.5
20260902154605 70 154 4.0 10.0 0.00 0.02 0.01 78 1020.6
20260902154056 70 180 2.0 9.0 0.00 0.02 0.01 79 1020.7
20260902153556 70 130 1.0 11.0 0.00 0.02 0.01 80 1020.7
20260902153108 70 78 5.0 14.0 0.00 0.02 0.01 79 1020.7
20260902152600 70 142 5.0 14.0 0.00 0.02 0.01 79 1020.8
20260902152056 70 119 4.0 9.0 0.00 0.02 0.01 79 1020.8
20260902151607 70 144 2.0 9.0 0.00 0.02 0.01 80 1020.7
20260902151058 70 146 2.0 10.0 0.00 0.02 0.01 79 1021.1
20260902150556 70 62 3.0 10.0 0.00 0.02 0.01 80 1021.0
20260902145557 69 121 2.0 9.0 0.00 0.04 0.01 81 1020.8
20260902145058 69 124 2.0 8.0 0.00 0.04 0.01 81 1020.7
20260902144559 69 77 3.0 10.0 0.00 0.04 0.01 81 1020.9
20260902144056 69 125 4.0 10.0 0.00 0.04 0.01 81 1021.0
20260902143555 69 78 4.0 9.0 0.00 0.04 0.01 82 1020.8
20260902143103 69 62 3.0 9.0 0.00 0.04 0.01 84 1020.7
20260902142557 68 47 2.0 9.0 0.00 0.04 0.01 85 1020.9
20260902142102 68 141 4.0 9.0 0.00 0.04 0.01 85 1021.0
20260902141602 68 76 2.0 8.0 0.00 0.04 0.01 84 1021.1
20260902141058 68 88 2.0 8.0 0.00 0.04 0.01 84 1021.0
20260902140558 68 103 4.0 8.0 0.00 0.04 0.01 84 1021.0
20260902135558 67 76 1.0 9.0 0.00 0.15 0.01 86 1020.9
20260902135058 67 287 4.0 9.0 0.00 0.15 0.01 87 1020.7
20260902134617 67 67 3.0 8.0 0.00 0.15 0.01 88 1020.7
20260902134057 66 50 4.0 7.0 0.00 0.15 0.01 90 1020.6
20260902133557 66 80 2.0 7.0 0.00 0.15 0.01 92 1020.6
20260902133109 66 82 3.0 7.0 0.00 0.15 0.01 93 1020.5
20260902132559 65 78 1.0 5.0 0.00 0.15 0.01 95 1020.5
20260902132102 64 0 2.0 5.0 0.00 0.15 0.01 96 1020.5
20260902131605 64 65 0.0 5.0 0.00 0.15 0.01 96 1020.5
20260902131057 64 65 1.0 6.0 0.00 0.15 0.01 96 1020.6
20260902130557 64 62 2.0 6.0 0.00 0.15 0.01 96 1020.6
20260902130115 64 41 2.0 7.0 0.00 0.15 0.01 96 1020.3
20260902125556 64 0 1.0 7.0 0.00 0.15 0.01 96 1020.2
20260902125056 63 76 1.0 7.0 0.00 0.15 0.01 96 1020.2
20260902124604 63 0 1.0 7.0 0.00 0.15 0.01 96 1020.1
20260902124056 63 64 2.0 11.0 0.00 0.15 0.01 96 1020.0
20260902123556 63 69 4.0 11.0 0.00 0.15 0.01 96 1020.2
20260902123109 63 26 4.0 11.0 0.00 0.15 0.01 96 1020.2
20260902122557 63 55 4.0 10.0 0.00 0.15 0.01 96 1020.2
20260902122056 63 68 5.0 10.0 0.00 0.15 0.01 96 1020.3
20260902121601 63 34 1.0 9.0 0.00 0.15 0.01 96 1020.1
20260902121059 63 45 3.0 9.0 0.00 0.15 0.01 96 1020.1
20260902120559 62 53 1.0 7.0 0.00 0.15 0.01 96 1020.2
20260902115558 62 0.0 0.0 0.00 0.15 0.01 96 1020.3
20260902115056 62 0.0 0.0 0.00 0.15 0.01 96 1020.3
20260902114603 62 0.0 0.0 0.00 0.15 0.01 96 1020.4
20260902114059 62 0.0 0.0 0.00 0.15 0.01 96 1020.4
20260902113556 62 0.0 0.0 0.00 0.15 0.01 96 1020.6
20260902113104 62 0.0 0.0 0.00 0.15 0.01 96 1020.6
20260902112557 62 0.0 0.0 0.00 0.15 0.01 96 1020.6
20260902112055 62 0.0 0.0 0.00 0.15 0.01 96 1020.5
20260902111604 62 0.0 0.0 0.00 0.15 0.01 96 1020.4